This is the latest recevied weather packets stored in our database for station/object KG4AGD. If no packets are shown the sender has not sent any weather packets the latest 10 day(s).
| Time | Temp. | Humidity | Pressure | Rain* | Wind** | Luminosity | Snow |
|---|---|---|---|---|---|---|---|
| 1777302510 | 15° C | 69% | 1025 hPa | 0 mm | - | - | - |
| 1777302209 | 15° C | 69% | 1025.3 hPa | 0 mm | - | - | - |
| 1777301906 | 14.44° C | 69% | 1025.3 hPa | 0 mm | - | - | - |
| 1777301604 | 15.56° C | 67% | 1025.3 hPa | 0 mm | - | - | - |
| 1777301302 | 15° C | 74% | 1025.3 hPa | 0 mm | - | - | - |
| 1777300999 | 13.89° C | 75% | 1025.3 hPa | 0 mm | - | - | - |
| 1777300697 | 13.33° C | 74% | 1025.3 hPa | 0 mm | - | - | - |
| 1777300394 | 13.33° C | 75% | 1025.3 hPa | 0 mm | - | - | - |
| 1777300092 | 13.33° C | 74% | 1025.3 hPa | 0 mm | - | - | - |
| 1777299790 | 13.33° C | 74% | 1025 hPa | 0 mm | - | - | - |
| 1777299485 | 13.33° C | 78% | 1025.3 hPa | 0 mm | - | - | - |
| 1777299183 | 12.78° C | 78% | 1025 hPa | 0 mm | - | - | - |
| 1777298880 | 13.33° C | 76% | 1025 hPa | 0 mm | - | - | - |
| 1777298578 | 13.33° C | 76% | 1025 hPa | 0 mm | - | - | - |
| 1777298276 | 13.33° C | 76% | 1025 hPa | 0 mm | - | - | - |
| 1777297974 | 13.33° C | 78% | 1025.3 hPa | 0 mm | - | - | - |
| 1777297671 | 12.78° C | 77% | 1025.3 hPa | 0 mm | - | - | - |
| 1777297369 | 12.78° C | 80% | 1025 hPa | 0 mm | - | - | - |
| 1777297066 | 12.78° C | 78% | 1025 hPa | 0 mm | - | - | - |
| 1777296764 | 13.33° C | 76% | 1025 hPa | 0 mm | - | - | - |
| 1777296462 | 13.89° C | 76% | 1025 hPa | 0 mm | - | - | - |
| 1777296160 | 13.33° C | 76% | 1024.7 hPa | 0 mm | - | - | - |
| 1777295857 | 12.22° C | 79% | 1024.7 hPa | 0 mm | - | - | - |
| 1777295555 | 12.22° C | 79% | 1024.7 hPa | 0 mm | - | - | - |
| 1777295252 | 12.22° C | 80% | 1024.7 hPa | 0 mm | - | - | - |
* Rain since midnight (hover to see other rain measurements)
** Current wind speed in m/s (hover to see current wind gust speed)